EW6113 Weather Reports


Display with metric or nautical units.
time (UTC)temp
F
wind
direction
speed
MPH
gust
MPH
rain 1hr
in
rain 24hr
in
rain mn
in
humidity
%
barometer
mb
20260903103029 59 96 2.0 8.0 0.00 0.00 0.00 91 1015.6
20260903101532 59 81 2.0 6.0 0.00 0.00 0.00 92 1015.7
20260903100026 59 84 1.0 4.0 0.00 0.00 0.00 92 1015.7
20260903094528 59 105 1.0 7.0 0.00 0.00 0.00 92 1015.8
20260903093030 59 113 1.0 4.0 0.00 0.00 0.00 92 1015.9
20260903091522 59 81 1.0 5.0 0.00 0.00 0.00 92 1016.1
20260903090029 59 105 0.0 3.0 0.00 0.00 0.00 92 1016.3
20260903084518 59 105 0.0 4.0 0.00 0.00 0.00 93 1016.3
20260903083019 59 151 1.0 5.0 0.00 0.00 0.00 93 1016.4
20260903081515 59 143 1.0 6.0 0.00 0.00 0.00 94 1016.5
20260903080013 59 92 2.0 6.0 0.00 0.00 0.00 94 1016.6
20260903074510 59 111 1.0 4.0 0.00 0.00 0.00 94 1016.7
20260903073023 59 97 2.0 5.0 0.00 0.00 0.00 94 1016.6
20260903071526 59 101 2.0 7.0 0.00 0.00 0.00 95 1016.6
20260903070005 59 84 2.0 7.0 0.00 0.00 0.00 95 1016.6
20260903064506 60 73 3.0 8.0 0.00 0.00 0.00 95 1016.4
20260903063004 60 98 2.0 8.0 0.00 0.00 0.00 94 1016.5
20260903061507 60 81 2.0 8.0 0.00 0.00 0.00 95 1016.4
20260903060008 60 105 4.0 7.0 0.00 0.00 0.00 95 1016.5
20260903054502 60 94 3.0 8.0 0.00 0.00 0.00 95 1016.5
20260903053002 60 98 7.0 13.0 0.00 0.00 0.00 94 1016.5
20260903051502 61 105 6.0 11.0 0.00 0.00 0.00 94 1016.6
20260903050004 61 115 6.0 10.0 0.00 0.00 0.00 94 1016.6
20260903044601 61 107 4.0 9.0 0.00 0.00 0.00 93 1016.6
20260903044500 61 93 3.0 9.0 0.00 0.00 0.00 93 1016.5
20260903043102 62 84 4.0 10.0 0.00 0.00 0.00 93 1016.6
20260903041600 62 75 4.0 9.0 0.00 0.00 0.00 93 1016.5
20260903040100 62 113 3.0 7.0 0.00 0.00 0.00 92 1016.4
20260903034605 62 114 4.0 9.0 0.00 0.00 0.00 92 1016.3
20260903033114 62 111 2.0 10.0 0.00 0.00 0.00 92 1016.1
20260903031634 62 76 3.0 6.0 0.00 0.00 0.00 91 1016.0
20260903030058 62 62 4.0 9.0 0.00 0.00 0.00 91 1016.0
20260903024558 62 84 4.0 10.0 0.00 0.00 0.00 90 1016.0
20260903023059 63 82 3.0 9.0 0.00 0.00 0.00 90 1016.0
20260903021554 63 67 4.0 9.0 0.00 0.00 0.00 89 1016.0
20260903020054 64 71 5.0 10.0 0.00 0.00 0.00 87 1015.9
20260903014557 65 100 5.0 11.0 0.00 0.00 0.00 87 1016.1
20260903013055 65 106 6.0 11.0 0.00 0.00 0.00 86 1016.1
20260903011556 66 92 4.0 11.0 0.00 0.00 0.00 85 1016.1
20260903010050 66 94 7.0 15.0 0.00 0.00 0.00 85 1016.2
20260903004550 66 132 7.0 13.0 0.00 0.00 0.00 84 1016.2
20260903003050 66 98 7.0 14.0 0.00 0.00 0.00 84 1016.3
20260903001545 66 84 5.0 13.0 0.00 0.00 0.00 86 1016.3
20260903000044 66 87 8.0 14.0 0.00 0.00 0.00 86 1016.4
20260902234549 66 115 5.0 15.0 0.00 0.00 0.00 84 1016.5
20260902233042 67 97 8.0 17.0 0.00 0.00 0.00 82 1016.7
20260902231541 67 74 8.0 15.0 0.00 0.00 0.00 80 1016.8
20260902230046 68 101 9.0 16.0 0.00 0.00 0.00 79 1016.9
20260902224539 68 107 7.0 16.0 0.00 0.00 0.00 80 1017.1
20260902223044 68 66 7.0 14.0 0.00 0.00 0.00 79 1017.1
20260902221539 68 91 7.0 16.0 0.00 0.00 0.00 78 1017.1
20260902220039 68 98 10.0 14.0 0.00 0.00 0.00 77 1017.2
20260902214537 68 80 9.0 15.0 0.00 0.00 0.00 77 1017.3
20260902213036 68 66 8.0 15.0 0.00 0.00 0.00 75 1017.3
20260902211536 68 78 8.0 15.0 0.00 0.00 0.00 74 1017.4
20260902210044 68 94 9.0 16.0 0.00 0.00 0.00 72 1017.4
20260902204535 68 82 9.0 16.0 0.00 0.00 0.00 71 1017.5
20260902203042 68 84 8.0 14.0 0.00 0.00 0.00 72 1017.5
20260902201540 67 125 9.0 16.0 0.00 0.00 0.00 74 1017.6
20260902200032 67 72 9.0 15.0 0.00 0.00 0.00 73 1017.6
20260902194532 68 69 8.0 15.0 0.00 0.00 0.00 70 1017.6
20260902193032 68 61 8.0 16.0 0.00 0.00 0.00 70 1017.6
20260902191544 68 96 10.0 18.0 0.00 0.00 0.00 70 1017.7
20260902190029 67 89 6.0 16.0 0.00 0.00 0.00 70 1017.8
20260902184538 68 91 8.0 15.0 0.00 0.00 0.00 67 1017.9
20260902183029 68 88 6.0 14.0 0.00 0.00 0.00 66 1017.9
20260902181527 68 69 9.0 13.0 0.00 0.00 0.00 64 1018.0
20260902180030 68 114 6.0 12.0 0.00 0.00 0.00 65 1017.9
20260902174526 68 67 6.0 12.0 0.00 0.00 0.00 65 1017.9
20260902173020 67 93 5.0 11.0 0.00 0.00 0.00 66 1017.8
20260902171518 66 98 6.0 10.0 0.00 0.00 0.00 69 1017.7
20260902170015 64 94 3.0 10.0 0.00 0.00 0.00 72 1017.8
20260902164511 63 113 7.0 10.0 0.00 0.00 0.00 74 1017.8
20260902163010 63 107 5.0 10.0 0.00 0.00 0.00 73 1017.6
20260902161508 63 94 3.0 8.0 0.00 0.00 0.00 74 1017.5
20260902160005 62 107 4.0 8.0 0.00 0.00 0.00 78 1017.6
20260902154600 60 112 2.0 4.0 0.00 0.00 0.00 83 1017.4
20260902153101 58 112 4.0 7.0 0.00 0.00 0.00 89 1017.4
20260902151556 56 84 1.0 4.0 0.00 0.00 0.00 94 1017.3
20260902150051 54 267 0.0 2.0 0.00 0.00 0.00 96 1017.3
20260902144551 52 267 0.0 2.0 0.00 0.00 0.00 96 1017.4
20260902143049 51 267 0.0 0.0 0.00 0.00 0.00 96 1017.2
20260902141549 49 267 0.0 0.0 0.00 0.00 0.00 96 1016.9
20260902140047 49 267 0.0 4.0 0.00 0.00 0.00 95 1016.9
20260902134551 49 267 2.0 4.0 0.00 0.00 0.00 95 1016.9
20260902133044 49 105 0.0 0.0 0.00 0.00 0.00 95 1017.1
20260902131545 49 105 0.0 0.0 0.00 0.00 0.00 95 1017.1
20260902130041 49 105 0.0 1.0 0.00 0.00 0.00 95 1017.1
20260902124541 50 105 0.0 0.0 0.00 0.00 0.00 95 1017.0
20260902123100 50 105 0.0 0.0 0.00 0.00 0.00 95 1017.1
20260902121552 50 105 0.0 0.0 0.00 0.00 0.00 95 1017.2
20260902120040 50 105 2.0 3.0 0.00 0.00 0.00 95 1017.0
20260902114536 50 105 0.0 0.0 0.00 0.00 0.00 95 1017.0
20260902113034 49 105 0.0 0.0 0.00 0.00 0.00 94 1017.1
20260902111540 50 105 0.0 0.0 0.00 0.00 0.00 94 1016.9
20260902110030 50 105 0.0 0.0 0.00 0.00 0.00 94 1017.0
20260902104529 51 105 0.0 0.0 0.00 0.00 0.00 95 1016.7